Terminal Aerodrome Forecast
Issued by NWS La Crosse, WI

Current Version | Previous Version | Text Only | Print | Product List | Glossary On
Versions: 1 2 3 4 5 6 7 8 9 10 11 12 13 14 15 16 17 18 19 20 21 22 23 24 25 26 27 28 29 30 31 32 33 34
000
FTUS43 KARX 282330
TAFLSE
TAF
KLSE 282330Z 2900/2924 14005KT P6SM OVC100
      TEMPO 2900/2901 -FZRA BKN060
     FM290900 16007KT 5SM BR SCT020 BKN150
     FM291500 16007KT P6SM SCT250=

USA.gov is the U.S. government's official web portal to all federal, state and local government web resources and services.